Time,TemperatureF,DewpointF,PressureIn,WindDirection,WindDirectionDegrees,WindSpeedMPH,WindSpeedGustMPH,Humidity,HourlyPrecipIn,Conditions,Clouds,dailyrainin,SoftwareType,DateUTC
2013-01-28 00:05:00,35.4,30.8,30.57,SE,140,4.0,4.0,83,0.00,,,0.00,Wunderground v.1.15,2013-01-28 05:05:00,
2013-01-28 00:10:00,35.4,30.8,30.56,SSE,159,4.0,5.0,83,0.00,,,0.00,Wunderground v.1.15,2013-01-28 05:10:00,
2013-01-28 00:15:00,35.4,30.8,30.56,SSE,165,3.0,5.0,83,0.00,,,0.00,Wunderground v.1.15,2013-01-28 05:15:00,
2013-01-28 00:20:00,35.4,30.8,30.56,SSE,157,4.0,6.0,83,0.00,,,0.00,Wunderground v.1.15,2013-01-28 05:20:00,
2013-01-28 00:25:00,35.4,30.5,30.56,SW,225,4.0,4.0,82,0.00,,,0.00,Wunderground v.1.15,2013-01-28 05:25:00,
2013-01-28 00:30:00,35.5,30.5,30.56,East,89,3.0,7.0,82,0.00,,,0.00,Wunderground v.1.15,2013-01-28 05:30:00,
2013-01-28 00:35:00,35.6,30.6,30.56,ESE,111,4.0,4.0,82,0.00,,,0.00,Wunderground v.1.15,2013-01-28 05:35:00,
2013-01-28 00:40:00,35.6,30.6,30.57,SSE,163,4.0,7.0,82,0.00,,,0.00,Wunderground v.1.15,2013-01-28 05:40:00,
2013-01-28 00:50:00,35.8,30.5,30.57,SSW,203,5.0,7.0,81,0.00,,,0.00,Wunderground v.1.15,2013-01-28 05:50:00,
2013-01-28 01:05:00,36.0,30.4,30.56,South,175,5.0,5.0,80,0.00,,,0.00,Wunderground v.1.15,2013-01-28 06:05:00,
2013-01-28 01:10:00,36.0,30.1,30.56,SSE,155,5.0,5.0,79,0.00,,,0.00,Wunderground v.1.15,2013-01-28 06:10:00,
2013-01-28 01:15:00,36.0,30.4,30.56,SSW,211,4.0,4.0,80,0.00,,,0.00,Wunderground v.1.15,2013-01-28 06:15:00,
2013-01-28 01:20:00,36.0,30.1,30.56,SSW,207,4.0,6.0,79,0.00,,,0.00,Wunderground v.1.15,2013-01-28 06:20:00,
2013-01-28 01:25:00,36.0,30.4,30.56,SSW,197,5.0,5.0,80,0.00,,,0.00,Wunderground v.1.15,2013-01-28 06:25:00,
2013-01-28 01:30:00,35.9,30.3,30.55,SSE,153,4.0,5.0,80,0.00,,,0.00,Wunderground v.1.15,2013-01-28 06:30:00,
2013-01-28 01:35:00,35.9,30.3,30.55,East,83,4.0,6.0,80,0.00,,,0.00,Wunderground v.1.15,2013-01-28 06:35:00,
2013-01-28 01:45:00,35.8,30.2,30.55,SSE,150,4.0,4.0,80,0.00,,,0.00,Wunderground v.1.15,2013-01-28 06:45:00,
2013-01-28 01:50:00,35.7,30.1,30.55,SSE,162,3.0,5.0,80,0.00,,,0.00,Wunderground v.1.15,2013-01-28 06:50:00,
2013-01-28 01:55:00,35.7,30.1,30.55,SSE,163,2.0,2.0,80,0.00,,,0.00,Wunderground v.1.15,2013-01-28 06:55:00,
2013-01-28 02:05:00,35.6,30.3,30.54,ESE,113,3.0,3.0,81,0.00,,,0.00,Wunderground v.1.15,2013-01-28 07:05:00,
2013-01-28 02:10:00,35.5,30.2,30.54,SSW,212,3.0,5.0,81,0.00,,,0.00,Wunderground v.1.15,2013-01-28 07:10:00,
2013-01-28 02:15:00,35.5,30.2,30.54,South,174,3.0,5.0,81,0.00,,,0.00,Wunderground v.1.15,2013-01-28 07:15:00,
2013-01-28 02:20:00,35.5,30.2,30.54,South,186,4.0,5.0,81,0.00,,,0.00,Wunderground v.1.15,2013-01-28 07:20:00,
2013-01-28 02:25:00,35.4,30.1,30.54,SW,214,4.0,4.0,81,0.00,,,0.00,Wunderground v.1.15,2013-01-28 07:25:00,
2013-01-28 02:30:00,35.4,30.1,30.54,East,85,3.0,5.0,81,0.00,,,0.00,Wunderground v.1.15,2013-01-28 07:30:00,
2013-01-28 02:35:00,35.4,30.1,30.54,South,186,2.0,5.0,81,0.00,,,0.00,Wunderground v.1.15,2013-01-28 07:35:00,
2013-01-28 02:40:00,35.4,30.1,30.55,South,182,2.0,5.0,81,0.00,,,0.00,Wunderground v.1.15,2013-01-28 07:40:00,
2013-01-28 02:45:00,35.4,30.1,30.55,SE,131,2.0,5.0,81,0.00,,,0.00,Wunderground v.1.15,2013-01-28 07:45:00,
2013-01-28 02:50:00,35.4,30.1,30.55,SW,232,2.0,5.0,81,0.00,,,0.00,Wunderground v.1.15,2013-01-28 07:50:00,
2013-01-28 02:55:00,35.4,30.1,30.55,SSE,155,2.0,2.0,81,0.00,,,0.00,Wunderground v.1.15,2013-01-28 07:55:00,
2013-01-28 03:05:00,35.4,30.1,30.55,South,188,1.0,5.0,81,0.00,,,0.00,Wunderground v.1.15,2013-01-28 08:05:00,
2013-01-28 03:10:00,35.4,30.1,30.55,SSE,161,0.0,5.0,81,0.00,,,0.00,Wunderground v.1.15,2013-01-28 08:10:00,
2013-01-28 03:15:00,35.4,30.1,30.55,SSW,203,2.0,5.0,81,0.00,,,0.00,Wunderground v.1.15,2013-01-28 08:15:00,
2013-01-28 03:20:00,35.5,30.2,30.54,SSW,192,2.0,5.0,81,0.00,,,0.00,Wunderground v.1.15,2013-01-28 08:20:00,
2013-01-28 03:25:00,35.4,30.5,30.53,East,99,1.0,1.0,82,0.00,,,0.00,Wunderground v.1.15,2013-01-28 08:25:00,
2013-01-28 03:30:00,35.3,30.4,30.54,SSE,165,1.0,5.0,82,0.00,,,0.00,Wunderground v.1.15,2013-01-28 08:30:00,
2013-01-28 03:35:00,35.2,30.3,30.54,SSE,150,1.0,5.0,82,0.00,,,0.00,Wunderground v.1.15,2013-01-28 08:35:00,
2013-01-28 03:40:00,35.3,30.1,30.53,SSE,153,2.0,5.0,81,0.00,,,0.00,Wunderground v.1.15,2013-01-28 08:40:00,
2013-01-28 03:45:00,35.5,30.2,30.54,SW,223,3.0,5.0,81,0.00,,,0.00,Wunderground v.1.15,2013-01-28 08:45:00,
2013-01-28 03:50:00,35.6,30.3,30.54,SSW,210,2.0,5.0,81,0.00,,,0.00,Wunderground v.1.15,2013-01-28 08:50:00,
2013-01-28 03:55:00,35.7,30.4,30.54,South,172,2.0,5.0,81,0.00,,,0.00,Wunderground v.1.15,2013-01-28 08:55:00,
2013-01-28 04:05:00,35.7,30.1,30.54,SSE,161,2.0,2.0,80,0.00,,,0.00,Wunderground v.1.15,2013-01-28 09:05:00,
2013-01-28 04:10:00,35.5,30.2,30.54,ESE,115,2.0,4.0,81,0.00,,,0.00,Wunderground v.1.15,2013-01-28 09:10:00,
2013-01-28 04:15:00,35.4,30.1,30.53,SW,219,2.0,5.0,81,0.00,,,0.00,Wunderground v.1.15,2013-01-28 09:15:00,
2013-01-28 04:20:00,35.6,30.3,30.53,SE,142,3.0,5.0,81,0.00,,,0.00,Wunderground v.1.15,2013-01-28 09:20:00,
2013-01-28 04:25:00,36.0,30.4,30.53,WSW,256,2.0,2.0,80,0.00,,,0.00,Wunderground v.1.15,2013-01-28 09:25:00,
2013-01-28 04:30:00,36.5,30.6,30.53,SSW,198,3.0,3.0,79,0.00,,,0.00,Wunderground v.1.15,2013-01-28 09:30:00,
2013-01-28 04:35:00,36.8,30.6,30.53,WSW,248,3.0,3.0,78,0.00,,,0.00,Wunderground v.1.15,2013-01-28 09:35:00,
2013-01-28 04:40:00,37.0,30.8,30.53,SW,220,3.0,5.0,78,0.00,,,0.00,Wunderground v.1.15,2013-01-28 09:40:00,
2013-01-28 04:45:00,36.6,30.4,30.53,South,169,2.0,5.0,78,0.00,,,0.00,Wunderground v.1.15,2013-01-28 09:45:00,
2013-01-28 04:55:00,36.4,30.2,30.53,South,182,2.0,2.0,78,0.00,,,0.00,Wunderground v.1.15,2013-01-28 09:55:00,
2013-01-28 05:05:00,36.4,30.5,30.54,SW,219,2.0,5.0,79,0.00,,,0.00,Wunderground v.1.15,2013-01-28 10:05:00,
2013-01-28 05:10:00,36.5,30.6,30.55,SW,218,2.0,5.0,79,0.00,,,0.00,Wunderground v.1.15,2013-01-28 10:10:00,
2013-01-28 05:15:00,36.5,30.6,30.54,SE,138,2.0,5.0,79,0.00,,,0.00,Wunderground v.1.15,2013-01-28 10:15:00,
2013-01-28 05:20:00,36.8,30.9,30.54,South,169,2.0,5.0,79,0.00,,,0.00,Wunderground v.1.15,2013-01-28 10:20:00,
2013-01-28 05:30:00,37.0,30.8,30.54,South,171,2.0,5.0,78,0.00,,,0.00,Wunderground v.1.15,2013-01-28 10:30:00,
2013-01-28 05:35:00,36.9,30.7,30.54,South,190,1.0,5.0,78,0.00,,,0.00,Wunderground v.1.15,2013-01-28 10:35:00,
2013-01-28 05:40:00,36.8,30.9,30.54,SSE,163,2.0,5.0,79,0.00,,,0.00,Wunderground v.1.15,2013-01-28 10:40:00,
2013-01-28 05:45:00,36.8,30.9,30.54,SSE,156,1.0,5.0,79,0.00,,,0.00,Wunderground v.1.15,2013-01-28 10:45:00,
2013-01-28 05:55:00,36.9,31.0,30.54,SSE,154,1.0,5.0,79,0.00,,,0.00,Wunderground v.1.15,2013-01-28 10:55:00,
2013-01-28 06:05:00,36.9,31.3,30.55,SSE,155,2.0,5.0,80,0.00,,,0.00,Wunderground v.1.15,2013-01-28 11:05:00,
2013-01-28 06:10:00,36.9,31.3,30.55,SW,215,2.0,5.0,80,0.00,,,0.00,Wunderground v.1.15,2013-01-28 11:10:00,
2013-01-28 06:15:00,36.9,31.3,30.55,SSE,157,2.0,5.0,80,0.00,,,0.00,Wunderground v.1.15,2013-01-28 11:15:00,
2013-01-28 06:25:00,36.9,31.6,30.56,SE,132,1.0,5.0,81,0.00,,,0.00,Wunderground v.1.15,2013-01-28 11:25:00,
2013-01-28 06:30:00,36.9,31.9,30.55,South,184,1.0,5.0,82,0.00,,,0.00,Wunderground v.1.15,2013-01-28 11:30:00,
2013-01-28 06:40:00,37.2,32.2,30.55,South,187,1.0,5.0,82,0.00,,,0.00,Wunderground v.1.15,2013-01-28 11:40:00,
2013-01-28 06:45:00,37.4,32.4,30.55,WSW,244,1.0,1.0,82,0.00,,,0.00,Wunderground v.1.15,2013-01-28 11:45:00,
2013-01-28 06:55:00,37.5,32.5,30.55,SSW,203,1.0,5.0,82,0.00,,,0.00,Wunderground v.1.15,2013-01-28 11:55:00,
2013-01-28 07:05:00,37.4,32.4,30.55,SSW,203,0.0,5.0,82,0.00,,,0.00,Wunderground v.1.15,2013-01-28 12:05:00,
2013-01-28 07:10:00,37.3,32.6,30.55,SSW,203,0.0,5.0,83,0.00,,,0.00,Wunderground v.1.15,2013-01-28 12:10:00,
2013-01-28 07:15:00,37.3,32.6,30.55,SSW,203,0.0,5.0,83,0.00,,,0.00,Wunderground v.1.15,2013-01-28 12:15:00,
2013-01-28 07:20:00,37.3,32.6,30.56,SSW,203,0.0,5.0,83,0.00,,,0.00,Wunderground v.1.15,2013-01-28 12:20:00,
2013-01-28 07:25:00,37.4,32.7,30.55,SSW,203,0.0,5.0,83,0.00,,,0.00,Wunderground v.1.15,2013-01-28 12:25:00,
2013-01-28 07:30:00,37.4,32.7,30.55,SSW,203,0.0,5.0,83,0.00,,,0.00,Wunderground v.1.15,2013-01-28 12:30:00,
2013-01-28 07:35:00,37.6,33.2,30.55,SSW,203,0.0,5.0,84,0.00,,,0.00,Wunderground v.1.15,2013-01-28 12:35:00,
2013-01-28 07:40:00,37.7,33.0,30.55,SSW,203,0.0,5.0,83,0.00,,,0.00,Wunderground v.1.15,2013-01-28 12:40:00,
2013-01-28 07:45:00,37.9,33.5,30.55,SSW,203,0.0,5.0,84,0.00,,,0.00,Wunderground v.1.15,2013-01-28 12:45:00,
2013-01-28 07:55:00,37.6,32.9,30.56,SSW,203,0.0,5.0,83,0.00,,,0.00,Wunderground v.1.15,2013-01-28 12:55:00,
2013-01-28 08:05:00,37.7,33.6,30.56,SSW,203,0.0,5.0,85,0.00,,,0.00,Wunderground v.1.15,2013-01-28 13:05:00,
2013-01-28 08:10:00,37.8,33.7,30.56,SSW,203,0.0,5.0,85,0.00,,,0.00,Wunderground v.1.15,2013-01-28 13:10:00,
2013-01-28 08:15:00,38.0,34.2,30.55,SSW,203,0.0,5.0,86,0.00,,,0.00,Wunderground v.1.15,2013-01-28 13:15:00,
2013-01-28 08:25:00,38.5,34.1,30.56,SSW,203,0.0,5.0,84,0.00,,,0.00,Wunderground v.1.15,2013-01-28 13:25:00,
2013-01-28 08:30:00,38.8,34.4,30.55,SSW,203,0.0,5.0,84,0.00,,,0.00,Wunderground v.1.15,2013-01-28 13:30:00,
2013-01-28 08:35:00,39.0,34.6,30.56,SSW,203,0.0,5.0,84,0.00,,,0.00,Wunderground v.1.15,2013-01-28 13:35:00,
2013-01-28 08:40:00,39.1,34.7,30.55,SSW,203,1.0,5.0,84,0.00,,,0.00,Wunderground v.1.15,2013-01-28 13:40:00,
2013-01-28 08:45:00,39.1,34.7,30.56,SSW,203,1.0,1.0,84,0.00,,,0.00,Wunderground v.1.15,2013-01-28 13:45:00,
2013-01-28 08:50:00,39.4,35.3,30.56,SSW,203,0.0,5.0,85,0.00,,,0.00,Wunderground v.1.15,2013-01-28 13:50:00,
2013-01-28 08:55:00,39.8,35.7,30.56,SSW,203,0.0,5.0,85,0.00,,,0.00,Wunderground v.1.15,2013-01-28 13:55:00,
2013-01-28 09:05:00,40.5,36.3,30.56,SSW,203,0.0,5.0,85,0.00,,,0.00,Wunderground v.1.15,2013-01-28 14:05:00,
2013-01-28 09:10:00,40.9,36.4,30.55,SSW,203,0.0,5.0,84,0.00,,,0.00,Wunderground v.1.15,2013-01-28 14:10:00,
2013-01-28 09:15:00,41.3,36.5,30.55,SSW,203,0.0,5.0,83,0.00,,,0.00,Wunderground v.1.15,2013-01-28 14:15:00,
2013-01-28 09:20:00,41.7,36.9,30.55,SSW,203,0.0,5.0,83,0.00,,,0.00,Wunderground v.1.15,2013-01-28 14:20:00,
2013-01-28 09:25:00,42.1,37.0,30.55,SSW,203,1.0,1.0,82,0.00,,,0.00,Wunderground v.1.15,2013-01-28 14:25:00,
2013-01-28 09:35:00,42.0,36.3,30.55,SSW,203,0.0,5.0,80,0.00,,,0.00,Wunderground v.1.15,2013-01-28 14:35:00,
2013-01-28 09:40:00,42.0,36.3,30.54,SSW,203,0.0,5.0,80,0.00,,,0.00,Wunderground v.1.15,2013-01-28 14:40:00,
2013-01-28 09:45:00,42.1,36.7,30.55,SSW,203,0.0,5.0,81,0.00,,,0.00,Wunderground v.1.15,2013-01-28 14:45:00,
2013-01-28 09:50:00,42.4,37.0,30.54,SSW,203,0.0,5.0,81,0.00,,,0.00,Wunderground v.1.15,2013-01-28 14:50:00,
2013-01-28 09:55:00,42.7,38.2,30.54,South,180,1.0,1.0,84,0.00,,,0.00,Wunderground v.1.15,2013-01-28 14:55:00,
2013-01-28 10:05:00,44.3,40.7,30.54,SSW,204,1.0,5.0,87,0.00,,,0.00,Wunderground v.1.15,2013-01-28 15:05:00,
2013-01-28 10:10:00,45.0,41.4,30.54,SW,229,2.0,5.0,87,0.00,,,0.00,Wunderground v.1.15,2013-01-28 15:10:00,
2013-01-28 10:15:00,45.5,41.6,30.54,SW,219,3.0,5.0,86,0.00,,,0.00,Wunderground v.1.15,2013-01-28 15:15:00,
2013-01-28 10:20:00,46.0,41.7,30.54,SW,217,3.0,5.0,85,0.00,,,0.00,Wunderground v.1.15,2013-01-28 15:20:00,
2013-01-28 10:30:00,46.1,42.1,30.54,SW,217,3.0,5.0,86,0.00,,,0.00,Wunderground v.1.15,2013-01-28 15:30:00,
2013-01-28 10:35:00,46.1,42.1,30.54,SSW,210,2.0,5.0,86,0.00,,,0.00,Wunderground v.1.15,2013-01-28 15:35:00,
2013-01-28 10:40:00,46.0,42.6,30.54,ESE,122,2.0,5.0,88,0.00,,,0.00,Wunderground v.1.15,2013-01-28 15:40:00,
2013-01-28 10:45:00,46.4,43.0,30.54,SSE,151,2.0,5.0,88,0.00,,,0.00,Wunderground v.1.15,2013-01-28 15:45:00,
2013-01-28 10:50:00,47.0,43.6,30.54,SSW,194,2.0,5.0,88,0.00,,,0.00,Wunderground v.1.15,2013-01-28 15:50:00,
2013-01-28 10:55:00,47.7,44.0,30.54,WSW,244,2.0,2.0,87,0.00,,,0.00,Wunderground v.1.15,2013-01-28 15:55:00,
2013-01-28 11:05:00,48.8,44.5,30.53,SW,225,3.0,3.0,85,0.00,,,0.00,Wunderground v.1.15,2013-01-28 16:05:00,
2013-01-28 11:10:00,49.4,44.5,30.53,SW,218,2.0,5.0,83,0.00,,,0.00,Wunderground v.1.15,2013-01-28 16:10:00,
2013-01-28 11:15:00,49.7,44.4,30.53,SW,230,2.0,5.0,82,0.00,,,0.00,Wunderground v.1.15,2013-01-28 16:15:00,
2013-01-28 11:25:00,50.9,44.9,30.52,SW,218,2.0,5.0,80,0.00,,,0.00,Wunderground v.1.15,2013-01-28 16:25:00,
2013-01-28 11:35:00,52.1,46.1,30.52,South,169,2.0,5.0,80,0.00,,,0.00,Wunderground v.1.15,2013-01-28 16:35:00,
2013-01-28 11:40:00,52.2,46.2,30.51,SSW,205,2.0,5.0,80,0.00,,,0.00,Wunderground v.1.15,2013-01-28 16:40:00,
2013-01-28 11:45:00,52.5,46.5,30.51,SSW,205,1.0,5.0,80,0.00,,,0.00,Wunderground v.1.15,2013-01-28 16:45:00,
2013-01-28 11:50:00,53.1,46.8,30.51,SSW,212,1.0,5.0,79,0.00,,,0.00,Wunderground v.1.15,2013-01-28 16:50:00,
2013-01-28 11:55:00,53.7,47.3,30.51,SSW,201,2.0,5.0,79,0.00,,,0.00,Wunderground v.1.15,2013-01-28 16:55:00,
2013-01-28 12:05:00,54.6,48.2,30.50,WSW,242,2.0,5.0,79,0.00,,,0.00,Wunderground v.1.15,2013-01-28 17:05:00,
2013-01-28 12:10:00,55.1,48.4,30.49,WSW,243,2.0,5.0,78,0.00,,,0.00,Wunderground v.1.15,2013-01-28 17:10:00,
2013-01-28 12:15:00,56.1,49.0,30.49,SSW,193,2.0,2.0,77,0.00,,,0.00,Wunderground v.1.15,2013-01-28 17:15:00,
2013-01-28 12:20:00,56.7,49.2,30.48,WSW,252,2.0,5.0,76,0.00,,,0.00,Wunderground v.1.15,2013-01-28 17:20:00,
2013-01-28 12:25:00,56.6,48.8,30.48,SSE,153,3.0,3.0,75,0.00,,,0.00,Wunderground v.1.15,2013-01-28 17:25:00,
2013-01-28 12:30:00,56.2,48.7,30.47,South,172,3.0,5.0,76,0.00,,,0.00,Wunderground v.1.15,2013-01-28 17:30:00,
2013-01-28 12:35:00,56.0,48.9,30.47,SSE,150,3.0,3.0,77,0.00,,,0.00,Wunderground v.1.15,2013-01-28 17:35:00,
2013-01-28 12:40:00,56.3,48.8,30.47,SSW,196,3.0,5.0,76,0.00,,,0.00,Wunderground v.1.15,2013-01-28 17:40:00,
2013-01-28 12:45:00,56.4,48.9,30.46,SE,145,3.0,5.0,76,0.00,,,0.00,Wunderground v.1.15,2013-01-28 17:45:00,
2013-01-28 12:50:00,56.7,49.2,30.45,WSW,243,3.0,5.0,76,0.00,,,0.00,Wunderground v.1.15,2013-01-28 17:50:00,
2013-01-28 12:55:00,56.5,48.7,30.45,South,181,4.0,5.0,75,0.00,,,0.00,Wunderground v.1.15,2013-01-28 17:55:00,
2013-01-28 13:05:00,56.4,48.9,30.44,WSW,254,4.0,6.0,76,0.00,,,0.00,Wunderground v.1.15,2013-01-28 18:05:00,
2013-01-28 13:10:00,56.8,49.0,30.43,South,184,4.0,6.0,75,0.00,,,0.00,Wunderground v.1.15,2013-01-28 18:10:00,
2013-01-28 13:15:00,57.2,49.0,30.42,South,169,4.0,4.0,74,0.00,,,0.00,Wunderground v.1.15,2013-01-28 18:15:00,
2013-01-28 13:20:00,57.9,49.3,30.41,SW,223,4.0,5.0,73,0.00,,,0.00,Wunderground v.1.15,2013-01-28 18:20:00,
2013-01-28 13:25:00,58.7,48.9,30.41,SW,236,4.0,5.0,70,0.00,,,0.00,Wunderground v.1.15,2013-01-28 18:25:00,
2013-01-28 13:30:00,58.8,49.0,30.41,SW,232,4.0,5.0,70,0.00,,,0.00,Wunderground v.1.15,2013-01-28 18:30:00,
2013-01-28 13:35:00,59.4,48.8,30.41,WSW,239,5.0,5.0,68,0.00,,,0.00,Wunderground v.1.15,2013-01-28 18:35:00,
2013-01-28 13:40:00,59.9,48.5,30.39,SW,232,5.0,7.0,66,0.00,,,0.00,Wunderground v.1.15,2013-01-28 18:40:00,
2013-01-28 13:45:00,59.8,48.0,30.39,South,185,5.0,8.0,65,0.00,,,0.00,Wunderground v.1.15,2013-01-28 18:45:00,
2013-01-28 13:50:00,59.9,47.7,30.39,SSE,164,5.0,8.0,64,0.00,,,0.00,Wunderground v.1.15,2013-01-28 18:50:00,
2013-01-28 13:55:00,59.7,47.9,30.38,South,170,5.0,6.0,65,0.00,,,0.00,Wunderground v.1.15,2013-01-28 18:55:00,
2013-01-28 14:05:00,60.1,47.9,30.38,SSE,155,4.0,5.0,64,0.00,,,0.00,Wunderground v.1.15,2013-01-28 19:05:00,
2013-01-28 14:10:00,60.2,48.0,30.38,WNW,284,4.0,5.0,64,0.00,,,0.00,Wunderground v.1.15,2013-01-28 19:10:00,
2013-01-28 14:15:00,60.3,47.6,30.38,South,171,5.0,5.0,63,0.00,,,0.00,Wunderground v.1.15,2013-01-28 19:15:00,
2013-01-28 14:20:00,60.4,47.3,30.38,South,171,5.0,5.0,62,0.00,,,0.00,Wunderground v.1.15,2013-01-28 19:20:00,
2013-01-28 14:25:00,60.4,47.3,30.37,SW,223,5.0,8.0,62,0.00,,,0.00,Wunderground v.1.15,2013-01-28 19:25:00,
2013-01-28 14:35:00,60.7,47.2,30.37,SSW,201,5.0,7.0,61,0.00,,,0.00,Wunderground v.1.15,2013-01-28 19:35:00,
2013-01-28 14:40:00,60.8,47.7,30.37,SSW,196,5.0,7.0,62,0.00,,,0.00,Wunderground v.1.15,2013-01-28 19:40:00,
2013-01-28 14:45:00,60.9,47.4,30.37,SSW,192,5.0,5.0,61,0.00,,,0.00,Wunderground v.1.15,2013-01-28 19:45:00,
2013-01-28 14:50:00,61.2,47.6,30.36,WNW,283,4.0,5.0,61,0.00,,,0.00,Wunderground v.1.15,2013-01-28 19:50:00,
2013-01-28 14:55:00,61.2,47.6,30.36,SW,220,4.0,5.0,61,0.00,,,0.00,Wunderground v.1.15,2013-01-28 19:55:00,
2013-01-28 15:05:00,61.6,47.6,30.36,SW,222,4.0,7.0,60,0.00,,,0.00,Wunderground v.1.15,2013-01-28 20:05:00,
2013-01-28 15:10:00,61.9,47.4,30.36,South,189,5.0,7.0,59,0.00,,,0.00,Wunderground v.1.15,2013-01-28 20:10:00,
2013-01-28 15:15:00,62.1,47.6,30.37,SW,235,4.0,4.0,59,0.00,,,0.00,Wunderground v.1.15,2013-01-28 20:15:00,
2013-01-28 15:20:00,62.3,47.8,30.36,SW,216,4.0,7.0,59,0.00,,,0.00,Wunderground v.1.15,2013-01-28 20:20:00,
2013-01-28 15:25:00,62.1,47.6,30.36,WSW,245,5.0,5.0,59,0.00,,,0.00,Wunderground v.1.15,2013-01-28 20:25:00,
2013-01-28 15:30:00,62.2,47.7,30.36,SSE,166,5.0,5.0,59,0.00,,,0.00,Wunderground v.1.15,2013-01-28 20:30:00,
2013-01-28 15:35:00,62.3,47.8,30.36,South,184,4.0,7.0,59,0.00,,,0.00,Wunderground v.1.15,2013-01-28 20:35:00,
2013-01-28 15:40:00,62.2,47.7,30.36,SW,233,4.0,7.0,59,0.00,,,0.00,Wunderground v.1.15,2013-01-28 20:40:00,
2013-01-28 15:45:00,62.5,47.5,30.36,East,88,4.0,5.0,58,0.00,,,0.00,Wunderground v.1.15,2013-01-28 20:45:00,
2013-01-28 15:55:00,62.2,47.7,30.36,West,267,4.0,5.0,59,0.00,,,0.00,Wunderground v.1.15,2013-01-28 20:55:00,
2013-01-28 16:05:00,61.7,47.2,30.36,WSW,245,5.0,6.0,59,0.00,,,0.00,Wunderground v.1.15,2013-01-28 21:05:00,
2013-01-28 16:10:00,61.5,47.0,30.36,WSW,255,5.0,6.0,59,0.00,,,0.00,Wunderground v.1.15,2013-01-28 21:10:00,
2013-01-28 16:15:00,61.4,47.4,30.36,SSW,193,4.0,6.0,60,0.00,,,0.00,Wunderground v.1.15,2013-01-28 21:15:00,
2013-01-28 16:20:00,61.5,47.5,30.36,SSW,202,3.0,6.0,60,0.00,,,0.00,Wunderground v.1.15,2013-01-28 21:20:00,
2013-01-28 16:25:00,61.5,47.5,30.36,WSW,244,4.0,5.0,60,0.00,,,0.00,Wunderground v.1.15,2013-01-28 21:25:00,
2013-01-28 16:35:00,61.2,47.6,30.36,SSW,197,4.0,7.0,61,0.00,,,0.00,Wunderground v.1.15,2013-01-28 21:35:00,
2013-01-28 16:40:00,60.8,47.7,30.36,SW,215,4.0,7.0,62,0.00,,,0.00,Wunderground v.1.15,2013-01-28 21:40:00,
2013-01-28 16:45:00,60.5,48.3,30.36,South,176,4.0,4.0,64,0.00,,,0.00,Wunderground v.1.15,2013-01-28 21:45:00,
2013-01-28 16:50:00,60.4,48.2,30.36,SSW,193,4.0,5.0,64,0.00,,,0.00,Wunderground v.1.15,2013-01-28 21:50:00,
2013-01-28 16:55:00,60.2,48.0,30.36,SW,227,3.0,5.0,64,0.00,,,0.00,Wunderground v.1.15,2013-01-28 21:55:00,
2013-01-28 17:05:00,60.0,47.8,30.36,WSW,239,4.0,4.0,64,0.00,,,0.00,Wunderground v.1.15,2013-01-28 22:05:00,
2013-01-28 17:10:00,60.0,47.8,30.36,WSW,250,3.0,5.0,64,0.00,,,0.00,Wunderground v.1.15,2013-01-28 22:10:00,
2013-01-28 17:15:00,60.2,48.0,30.36,SW,223,2.0,5.0,64,0.00,,,0.00,Wunderground v.1.15,2013-01-28 22:15:00,
2013-01-28 17:25:00,59.6,47.8,30.35,SW,215,2.0,2.0,65,0.00,,,0.00,Wunderground v.1.15,2013-01-28 22:25:00,
2013-01-28 17:30:00,59.5,47.7,30.36,West,260,2.0,5.0,65,0.00,,,0.00,Wunderground v.1.15,2013-01-28 22:30:00,
2013-01-28 17:35:00,59.3,47.9,30.36,WSW,257,2.0,5.0,66,0.00,,,0.00,Wunderground v.1.15,2013-01-28 22:35:00,
2013-01-28 17:40:00,58.7,47.8,30.36,SW,225,2.0,5.0,67,0.00,,,0.00,Wunderground v.1.15,2013-01-28 22:40:00,
2013-01-28 17:45:00,57.8,47.7,30.36,SW,235,4.0,5.0,69,0.00,,,0.00,Wunderground v.1.15,2013-01-28 22:45:00,
2013-01-28 17:50:00,57.4,47.7,30.36,WSW,246,4.0,5.0,70,0.00,,,0.00,Wunderground v.1.15,2013-01-28 22:50:00,
2013-01-28 17:55:00,57.1,47.8,30.36,WSW,254,2.0,5.0,71,0.00,,,0.00,Wunderground v.1.15,2013-01-28 22:55:00,
2013-01-28 18:05:00,56.7,47.8,30.36,WSW,237,2.0,5.0,72,0.00,,,0.00,Wunderground v.1.15,2013-01-28 23:05:00,
2013-01-28 18:10:00,56.6,47.7,30.36,West,265,2.0,5.0,72,0.00,,,0.00,Wunderground v.1.15,2013-01-28 23:10:00,
2013-01-28 18:20:00,56.3,47.8,30.36,SSW,194,1.0,5.0,73,0.00,,,0.00,Wunderground v.1.15,2013-01-28 23:20:00,
2013-01-28 18:25:00,56.1,47.6,30.36,SSW,194,0.0,5.0,73,0.00,,,0.00,Wunderground v.1.15,2013-01-28 23:25:00,
2013-01-28 18:30:00,55.9,47.7,30.36,SSW,194,0.0,5.0,74,0.00,,,0.00,Wunderground v.1.15,2013-01-28 23:30:00,
2013-01-28 18:35:00,55.7,47.5,30.36,SW,220,1.0,5.0,74,0.00,,,0.00,Wunderground v.1.15,2013-01-28 23:35:00,
2013-01-28 18:40:00,55.6,47.4,30.36,SW,220,1.0,5.0,74,0.00,,,0.00,Wunderground v.1.15,2013-01-28 23:40:00,
2013-01-28 18:45:00,55.4,47.6,30.36,SW,222,1.0,1.0,75,0.00,,,0.00,Wunderground v.1.15,2013-01-28 23:45:00,
2013-01-28 18:50:00,55.3,47.5,30.36,SW,222,1.0,2.0,75,0.00,,,0.00,Wunderground v.1.15,2013-01-28 23:50:00,
2013-01-28 18:55:00,55.3,47.5,30.36,SW,222,1.0,1.0,75,0.00,,,0.00,Wunderground v.1.15,2013-01-28 23:55:00,
2013-01-28 19:05:00,55.1,47.3,30.36,SW,222,0.0,5.0,75,0.00,,,0.00,Wunderground v.1.15,2013-01-29 00:05:00,
2013-01-28 19:10:00,55.1,47.3,30.36,SW,222,0.0,5.0,75,0.00,,,0.00,Wunderground v.1.15,2013-01-29 00:10:00,
2013-01-28 19:15:00,55.1,47.3,30.36,SW,222,0.0,5.0,75,0.00,,,0.00,Wunderground v.1.15,2013-01-29 00:15:00,
2013-01-28 19:25:00,55.0,47.2,30.36,SW,222,0.0,5.0,75,0.00,,,0.00,Wunderground v.1.15,2013-01-29 00:25:00,
2013-01-28 19:30:00,54.9,47.1,30.36,SW,222,0.0,5.0,75,0.00,,,0.00,Wunderground v.1.15,2013-01-29 00:30:00,
2013-01-28 19:35:00,54.7,46.6,30.36,SW,222,0.0,5.0,74,0.00,,,0.00,Wunderground v.1.15,2013-01-29 00:35:00,
2013-01-28 19:40:00,54.7,46.9,30.36,SW,222,0.0,5.0,75,0.00,,,0.00,Wunderground v.1.15,2013-01-29 00:40:00,
2013-01-28 19:45:00,54.6,46.5,30.36,SW,222,0.0,5.0,74,0.00,,,0.00,Wunderground v.1.15,2013-01-29 00:45:00,
2013-01-28 19:50:00,54.6,46.5,30.36,SW,222,0.0,5.0,74,0.00,,,0.00,Wunderground v.1.15,2013-01-29 00:50:00,
2013-01-28 19:55:00,54.7,46.6,30.36,SW,222,0.0,5.0,74,0.00,,,0.00,Wunderground v.1.15,2013-01-29 00:55:00,
2013-01-28 20:05:00,54.5,47.1,30.35,SW,222,0.0,5.0,76,0.00,,,0.00,Wunderground v.1.15,2013-01-29 01:05:00,
2013-01-28 20:10:00,54.4,46.3,30.35,SW,222,0.0,5.0,74,0.00,,,0.00,Wunderground v.1.15,2013-01-29 01:10:00,
2013-01-28 20:15:00,54.5,46.4,30.35,SW,222,0.0,5.0,74,0.00,,,0.00,Wunderground v.1.15,2013-01-29 01:15:00,
2013-01-28 20:20:00,54.4,46.6,30.35,SW,222,0.0,5.0,75,0.00,,,0.00,Wunderground v.1.15,2013-01-29 01:20:00,
2013-01-28 20:25:00,54.2,46.4,30.36,SW,222,0.0,5.0,75,0.00,,,0.00,Wunderground v.1.15,2013-01-29 01:25:00,
2013-01-28 20:30:00,54.2,46.4,30.35,SW,222,0.0,5.0,75,0.00,,,0.00,Wunderground v.1.15,2013-01-29 01:30:00,
2013-01-28 20:35:00,54.4,46.6,30.36,SW,222,1.0,1.0,75,0.00,,,0.00,Wunderground v.1.15,2013-01-29 01:35:00,
2013-01-28 20:40:00,54.2,46.8,30.36,East,98,1.0,2.0,76,0.00,,,0.00,Wunderground v.1.15,2013-01-29 01:40:00,
2013-01-28 20:45:00,54.5,46.7,30.36,ENE,64,1.0,5.0,75,0.00,,,0.00,Wunderground v.1.15,2013-01-29 01:45:00,
2013-01-28 20:50:00,54.4,46.6,30.36,ENE,64,1.0,5.0,75,0.00,,,0.00,Wunderground v.1.15,2013-01-29 01:50:00,
2013-01-28 20:55:00,54.1,46.3,30.36,ENE,64,1.0,1.0,75,0.00,,,0.00,Wunderground v.1.15,2013-01-29 01:55:00,
2013-01-28 21:05:00,53.5,46.8,30.36,ENE,64,1.0,5.0,78,0.00,,,0.00,Wunderground v.1.15,2013-01-29 02:05:00,
2013-01-28 21:10:00,53.6,46.9,30.36,ENE,64,1.0,5.0,78,0.00,,,0.00,Wunderground v.1.15,2013-01-29 02:10:00,
2013-01-28 21:15:00,53.4,46.7,30.36,ENE,64,1.0,1.0,78,0.00,,,0.00,Wunderground v.1.15,2013-01-29 02:15:00,
2013-01-28 21:20:00,53.0,46.7,30.36,ENE,64,0.0,5.0,79,0.00,,,0.00,Wunderground v.1.15,2013-01-29 02:20:00,
2013-01-28 21:30:00,52.6,46.6,30.35,ENE,64,1.0,5.0,80,0.00,,,0.00,Wunderground v.1.15,2013-01-29 02:30:00,
2013-01-28 21:35:00,52.6,46.6,30.35,ENE,64,1.0,5.0,80,0.00,,,0.00,Wunderground v.1.15,2013-01-29 02:35:00,
2013-01-28 21:40:00,52.5,46.5,30.35,ENE,64,1.0,5.0,80,0.00,,,0.00,Wunderground v.1.15,2013-01-29 02:40:00,
2013-01-28 21:45:00,52.4,46.4,30.35,ENE,64,0.0,5.0,80,0.00,,,0.00,Wunderground v.1.15,2013-01-29 02:45:00,
2013-01-28 21:50:00,52.3,46.3,30.35,ENE,64,0.0,5.0,80,0.00,,,0.00,Wunderground v.1.15,2013-01-29 02:50:00,
2013-01-28 21:55:00,52.1,46.4,30.35,ENE,64,0.0,5.0,81,0.00,,,0.00,Wunderground v.1.15,2013-01-29 02:55:00,
2013-01-28 22:05:00,51.9,46.3,30.35,ENE,64,0.0,5.0,81,0.00,,,0.00,Wunderground v.1.15,2013-01-29 03:05:00,
2013-01-28 22:10:00,51.9,46.6,30.35,ENE,64,0.0,5.0,82,0.00,,,0.00,Wunderground v.1.15,2013-01-29 03:10:00,
2013-01-28 22:15:00,51.8,46.5,30.35,ENE,64,0.0,5.0,82,0.00,,,0.00,Wunderground v.1.15,2013-01-29 03:15:00,
2013-01-28 22:20:00,52.1,46.8,30.35,ENE,64,0.0,5.0,82,0.00,,,0.00,Wunderground v.1.15,2013-01-29 03:20:00,
2013-01-28 22:25:00,52.4,46.7,30.34,ENE,64,1.0,1.0,81,0.00,,,0.00,Wunderground v.1.15,2013-01-29 03:25:00,
2013-01-28 22:30:00,52.3,46.6,30.34,ENE,64,0.0,5.0,81,0.00,,,0.00,Wunderground v.1.15,2013-01-29 03:30:00,
2013-01-28 22:35:00,52.1,46.1,30.35,ENE,64,0.0,5.0,80,0.00,,,0.00,Wunderground v.1.15,2013-01-29 03:35:00,
2013-01-28 22:45:00,51.8,46.2,30.35,ENE,64,0.0,5.0,81,0.00,,,0.00,Wunderground v.1.15,2013-01-29 03:45:00,
2013-01-28 22:50:00,51.9,46.3,30.35,ENE,64,0.0,5.0,81,0.00,,,0.00,Wunderground v.1.15,2013-01-29 03:50:00,
2013-01-28 22:55:00,52.2,46.9,30.35,ENE,64,1.0,5.0,82,0.00,,,0.00,Wunderground v.1.15,2013-01-29 03:55:00,
2013-01-28 23:05:00,52.3,46.6,30.34,ENE,64,0.0,5.0,81,0.00,,,0.00,Wunderground v.1.15,2013-01-29 04:05:00,
2013-01-28 23:10:00,52.4,46.7,30.34,ENE,64,0.0,5.0,81,0.00,,,0.00,Wunderground v.1.15,2013-01-29 04:10:00,
2013-01-28 23:15:00,52.5,46.8,30.34,ENE,64,0.0,5.0,81,0.00,,,0.00,Wunderground v.1.15,2013-01-29 04:15:00,
2013-01-28 23:20:00,52.4,46.7,30.33,ENE,64,0.0,5.0,81,0.00,,,0.00,Wunderground v.1.15,2013-01-29 04:20:00,
2013-01-28 23:25:00,52.3,47.0,30.33,ENE,64,0.0,5.0,82,0.00,,,0.00,Wunderground v.1.15,2013-01-29 04:25:00,
2013-01-28 23:30:00,52.3,46.6,30.34,ENE,64,1.0,5.0,81,0.00,,,0.00,Wunderground v.1.15,2013-01-29 04:30:00,
2013-01-28 23:35:00,52.0,46.7,30.34,ENE,64,0.0,5.0,82,0.00,,,0.00,Wunderground v.1.15,2013-01-29 04:35:00,
2013-01-28 23:40:00,51.7,46.4,30.34,ENE,64,0.0,5.0,82,0.00,,,0.00,Wunderground v.1.15,2013-01-29 04:40:00,
2013-01-28 23:45:00,51.6,46.6,30.34,ENE,64,0.0,5.0,83,0.00,,,0.00,Wunderground v.1.15,2013-01-29 04:45:00,
2013-01-28 23:50:00,51.6,46.6,30.34,ENE,64,0.0,5.0,83,0.00,,,0.00,Wunderground v.1.15,2013-01-29 04:50:00,
2013-01-28 23:55:00,51.7,46.7,30.34,ENE,64,0.0,5.0,83,0.00,,,0.00,Wunderground v.1.15,2013-01-29 04:55:00,